TimeEDT,TemperatureF,Dew PointF,Humidity,Sea Level PressureIn,VisibilityMPH,Wind Direction,Wind SpeedMPH,Gust SpeedMPH,PrecipitationIn,Events,Conditions,WindDirDegrees,DateUTC
12:21 AM,44.6,44.6,100,29.37,9.0,SSW,10.4,-,N/A,,Overcast,210,2011-10-16 04:21:00
12:32 AM,44.6,44.6,100,29.37,7.0,South,5.8,-,0.00,Rain,Light Rain,180,2011-10-16 04:32:00
12:53 AM,44.1,44.1,100,29.38,7.0,South,8.1,-,0.00,,Mostly Cloudy,170,2011-10-16 04:53:00
1:53 AM,44.1,43.0,96,29.39,9.0,South,9.2,-,0.01,,Mostly Cloudy,170,2011-10-16 05:53:00
2:53 AM,44.1,43.0,96,29.38,10.0,South,12.7,-,N/A,,Mostly Cloudy,180,2011-10-16 06:53:00
3:53 AM,44.1,42.1,93,29.37,10.0,South,11.5,-,N/A,,Mostly Cloudy,180,2011-10-16 07:53:00
4:53 AM,44.6,42.8,93,29.36,10.0,South,11.5,20.7,N/A,,Overcast,180,2011-10-16 08:53:00
5:53 AM,44.1,42.1,93,29.38,10.0,South,13.8,-,0.00,Rain,Light Rain,190,2011-10-16 09:53:00
6:33 AM,44.6,42.8,93,29.38,10.0,SSW,13.8,-,0.00,Rain,Light Rain,200,2011-10-16 10:33:00
6:53 AM,44.1,42.1,93,29.39,10.0,SSW,11.5,19.6,0.00,Rain,Light Rain,200,2011-10-16 10:53:00
7:53 AM,44.6,42.8,93,29.41,9.0,SSW,12.7,19.6,N/A,Rain,Light Rain,200,2011-10-16 11:53:00
8:26 AM,44.6,42.8,93,29.42,8.0,South,13.8,21.9,0.00,Rain,Light Rain,190,2011-10-16 12:26:00
8:53 AM,44.1,43.0,96,29.45,10.0,SSW,11.5,-,0.00,Rain,Light Rain,210,2011-10-16 12:53:00
9:34 AM,44.6,42.8,93,29.45,10.0,WSW,11.5,20.7,0.00,,Overcast,240,2011-10-16 13:34:00
9:43 AM,44.6,42.8,93,29.46,10.0,SW,8.1,18.4,0.00,,Mostly Cloudy,230,2011-10-16 13:43:00
9:53 AM,45.0,41.0,86,29.47,10.0,WSW,13.8,25.3,0.00,,Mostly Cloudy,240,2011-10-16 13:53:00
10:53 AM,45.0,41.0,86,29.48,10.0,SW,6.9,-,N/A,,Overcast,230,2011-10-16 14:53:00
11:02 AM,46.4,41.0,81,29.47,10.0,WSW,10.4,18.4,N/A,,Overcast,250,2011-10-16 15:02:00
11:53 AM,46.9,41.0,80,29.49,10.0,SW,13.8,19.6,N/A,,Overcast,220,2011-10-16 15:53:00
12:53 PM,46.0,42.1,86,29.50,6.0,SSW,15.0,20.7,0.00,,Overcast,210,2011-10-16 16:53:00
1:14 PM,48.2,42.8,82,29.49,10.0,SW,18.4,24.2,0.00,,Overcast,230,2011-10-16 17:14:00
1:29 PM,46.4,39.2,76,29.49,10.0,SSW,16.1,26.5,0.00,,Overcast,210,2011-10-16 17:29:00
1:53 PM,48.9,39.0,69,29.49,10.0,WSW,13.8,24.2,0.00,,Mostly Cloudy,240,2011-10-16 17:53:00
2:53 PM,46.9,39.9,77,29.51,10.0,SW,12.7,23.0,0.00,Rain,Light Rain,230,2011-10-16 18:53:00
3:53 PM,46.9,39.9,77,29.51,10.0,SW,11.5,-,0.01,,Scattered Clouds,220,2011-10-16 19:53:00
4:53 PM,46.9,37.9,71,29.51,10.0,SW,13.8,21.9,0.00,,Partly Cloudy,220,2011-10-16 20:53:00
5:53 PM,45.0,37.9,76,29.52,10.0,SW,6.9,-,N/A,,Scattered Clouds,230,2011-10-16 21:53:00
6:53 PM,44.1,39.0,82,29.54,10.0,SW,9.2,-,N/A,,Overcast,220,2011-10-16 22:53:00
7:53 PM,42.1,39.0,89,29.53,10.0,SSW,4.6,-,0.00,,Partly Cloudy,210,2011-10-16 23:53:00
8:53 PM,41.0,39.0,93,29.54,10.0,SSW,5.8,-,N/A,,Mostly Cloudy,200,2011-10-17 00:53:00
9:53 PM,39.9,37.9,93,29.55,10.0,South,3.5,-,N/A,,Scattered Clouds,170,2011-10-17 01:53:00
10:53 PM,39.0,37.9,96,29.55,10.0,SSE,5.8,-,N/A,,Mostly Cloudy,160,2011-10-17 02:53:00
11:53 PM,39.9,37.0,89,29.55,10.0,SSE,5.8,-,N/A,,Scattered Clouds,160,2011-10-17 03:53:00